User: anonymous   Login
Location: Caltech
(34.1382°N, 118.1253°W)
Time: 07:43:44
(UTC-08:00)
Language:

Cosmos 1937 Rocket - Orbit

View from above orbital plane
View from above orbital plane
View from above satellite
View from above satellite

Ground track
Ground track

The orbit data is extracted from the following two-line orbital elements,

1 19039U 88029B   14331.84335830  .00000258  00000-0  93625-4 0  1902
2 19039 074.0483 216.0804 0024902 261.1944 167.0682 14.38093564396815
Epoch (UTC): 27 November 2014 20:14:26
Eccentricity: 0.0024902
inclination: 74.0483°
perigee height: 747 km
apogee height: 782 km
right ascension of ascending node: 216.0804°
argument of perigee: 261.1944°
revolutions per day: 14.38093564
mean anomaly at epoch: 167.0682°
orbit number at epoch: 39681

The dashed part of the orbit path shows where the satellite is in the earth's shadow,  

DLR